Regional Weather Roundup
Issued by NWS Charleston, WV

Home | Current Version | Previous Version | Text Only | Print | Product List | Glossary On
Versions: 1 2 3 4 5 6 7 8 9 10 11 12 13 14 15 16 17 18 19 20 21 22 23 24 25 26 27 28 29 30 31 32 33 34 35 36 37 38 39 40 41 42 43 44 45 46 47 48 49 50
000
ASUS41 KRLX 240710
RWRRLX
West Virginia Regional Weather Roundup
National Weather Service Charleston WV
300 AM EDT SAT JUN 24 2017

Note: "fair" indicates few or no clouds below 12,000 feet with no
significant weather and/or obstructions to visibility.

WVZ003-240800-
Northern Panhandle of West Virginia

CITY           SKY/WX    TMP DP  RH WIND       PRES   REMARKS
WHEELING       CLOUDY    67  65  93 W10       29.76S
$$

WVZ009-240800-
Northwest West Virginia

CITY           SKY/WX    TMP DP  RH WIND       PRES   REMARKS
PARKERSBURG    CLOUDY    66  64  93 W7        29.85R
$$

WVZ006-240800-
Western West Virginia

CITY           SKY/WX    TMP DP  RH WIND       PRES   REMARKS
HUNTINGTON     LGT RAIN  66  64  93 CALM      29.87R
$$

WVZ015-240800-
West Central West Virginia

CITY           SKY/WX    TMP DP  RH WIND       PRES   REMARKS
CHARLESTON     CLOUDY    67  64  90 W10       29.87R
$$

WVZ022-031-240800-
North Central West Virginia

CITY           SKY/WX    TMP DP  RH WIND       PRES   REMARKS
CLARKSBURG     CLOUDY    67  64  90 W9        29.79S
MORGANTOWN     CLOUDY    67  64  90 W5        29.79R
$$

WVZ025-035-042-045-240800-
Southern West Virginia

CITY           SKY/WX    TMP DP  RH WIND       PRES   REMARKS
BECKLEY        CLOUDY    63  61  93 W7        29.91S
LOGAN          CLOUDY    64  64 100 CALM      29.90S
BLUEFIELD      CLOUDY    61  59  93 W10G18    29.94R
LEWISBURG      PTCLDY    64  60  86 W5        29.87R
$$

WVZ047-240800-
Northern Mountains of West Virginia

CITY           SKY/WX    TMP DP  RH WIND       PRES   REMARKS
ELKINS         LGT RAIN  65  61  87 NW8G18    29.83R
$$

WVZ052-240800-
Eastern Panhandle of West Virginia

CITY           SKY/WX    TMP DP  RH WIND       PRES   REMARKS
MARTINSBURG    RAIN      70  68  93 N8        29.62F FOG
PETERSBURG     CLOUDY    71  71  98 NW10      29.71R
$$



USA.gov is the U.S. government's official web portal to all federal, state and local government web resources and services.